| time (UTC) | temp F | wind direction | speed knots | gust knots | rain 1hr in | rain 24hr in | rain mn in | humidity % | barometer mb |
| 20260508004055 | 68 | 47 | 0.9 | 1.7 | 0.00 | 0.08 | 0.08 | 49 | 1012.3 |
| 20260508003552 | 68 | 67 | 0.9 | 0.9 | 0.00 | 0.08 | 0.08 | 47 | 1012.5 |
| 20260508003049 | 67 | 21 | 0.0 | 0.9 | 0.00 | 0.08 | 0.08 | 52 | 1012.3 |
| 20260508002545 | 68 | 112 | 2.6 | 2.6 | 0.00 | 0.08 | 0.08 | 49 | 1012.3 |
| 20260508002043 | 68 | 74 | 4.3 | 5.2 | 0.00 | 0.08 | 0.08 | 48 | 1012.3 |
| 20260508001538 | 68 | 124 | 3.5 | 5.2 | 0.00 | 0.08 | 0.08 | 48 | 1012.4 |
| 20260508001035 | 68 | 53 | 0.9 | 0.9 | 0.00 | 0.08 | 0.08 | 51 | 1012.5 |
| 20260508000531 | 67 | 68 | 0.9 | 0.9 | 0.00 | 0.08 | 0.08 | 50 | 1012.4 |
| 20260508000029 | 66 | 98 | 0.9 | 0.9 | 0.00 | 0.08 | 0.08 | 54 | 1012.4 |
| 20260507235525 | 66 | 63 | 0.0 | 0.0 | 0.00 | 0.08 | 0.08 | 53 | 1012.4 |
| 20260507235022 | 68 | 344 | 1.7 | 2.6 | 0.00 | 0.08 | 0.08 | 52 | 1012.3 |
| 20260507234519 | 69 | 92 | 1.7 | 1.7 | 0.00 | 0.08 | 0.08 | 49 | 1012.3 |
| 20260507234015 | 69 | 16 | 1.7 | 1.7 | 0.00 | 0.08 | 0.08 | 46 | 1012.4 |
| 20260507233512 | 68 | 32 | 0.9 | 0.9 | 0.00 | 0.08 | 0.08 | 47 | 1012.5 |
| 20260507233011 | 67 | 75 | 1.7 | 2.6 | 0.00 | 0.08 | 0.08 | 48 | 1012.4 |
| 20260507232507 | 68 | 9 | 0.9 | 1.7 | 0.00 | 0.08 | 0.08 | 46 | 1012.3 |
| 20260507232004 | 69 | 15 | 0.9 | 0.9 | 0.00 | 0.08 | 0.08 | 47 | 1012.5 |
| 20260507231500 | 69 | 21 | 0.0 | 0.0 | 0.00 | 0.08 | 0.08 | 48 | 1012.6 |
| 20260507230957 | 68 | 354 | 0.9 | 2.6 | 0.00 | 0.08 | 0.08 | 48 | 1012.6 |
| 20260507230454 | 67 | 18 | 0.9 | 0.9 | 0.00 | 0.08 | 0.08 | 52 | 1012.5 |
| 20260507225949 | 67 | 36 | 0.0 | 0.9 | 0.00 | 0.08 | 0.08 | 51 | 1012.5 |
| 20260507225446 | 68 | 80 | 1.7 | 2.6 | 0.00 | 0.08 | 0.08 | 47 | 1012.6 |
| 20260507224942 | 68 | 359 | 0.9 | 0.9 | 0.00 | 0.08 | 0.08 | 48 | 1012.6 |
| 20260507224438 | 68 | 55 | 3.5 | 5.2 | 0.00 | 0.08 | 0.08 | 48 | 1012.5 |
| 20260507223935 | 67 | 52 | 1.7 | 1.7 | 0.00 | 0.08 | 0.08 | 47 | 1012.8 |
| 20260507223431 | 68 | 348 | 0.9 | 1.7 | 0.00 | 0.08 | 0.08 | 52 | 1012.8 |
| 20260507222928 | 68 | 357 | 1.7 | 1.7 | 0.00 | 0.08 | 0.08 | 50 | 1012.9 |
| 20260507222425 | 67 | 291 | 0.9 | 1.7 | 0.00 | 0.08 | 0.08 | 51 | 1013.0 |
| 20260507221921 | 67 | 20 | 0.9 | 0.9 | 0.00 | 0.08 | 0.08 | 54 | 1012.9 |
| 20260507221418 | 67 | 351 | 1.7 | 2.6 | 0.00 | 0.08 | 0.08 | 53 | 1013.0 |
| 20260507220914 | 66 | 27 | 1.7 | 2.6 | 0.00 | 0.08 | 0.08 | 55 | 1013.4 |
| 20260507220412 | 66 | 4 | 0.9 | 1.7 | 0.00 | 0.08 | 0.08 | 56 | 1013.4 |
| 20260507215908 | 65 | 2 | 0.0 | 0.9 | 0.00 | 0.08 | 0.08 | 57 | 1013.3 |
| 20260507215405 | 65 | 30 | 0.0 | 0.0 | 0.00 | 0.08 | 0.08 | 57 | 1013.4 |
| 20260507214902 | 65 | 351 | 0.9 | 0.9 | 0.00 | 0.08 | 0.08 | 55 | 1013.1 |
| 20260507214400 | 65 | 355 | 0.9 | 0.9 | 0.00 | 0.08 | 0.08 | 55 | 1013.4 |
| 20260507213855 | 64 | 6 | 0.0 | 0.0 | 0.00 | 0.08 | 0.08 | 56 | 1013.4 |
| 20260507213352 | 63 | 340 | 0.9 | 1.7 | 0.00 | 0.08 | 0.08 | 61 | 1013.6 |
| 20260507212849 | 63 | 16 | 0.0 | 0.0 | 0.00 | 0.08 | 0.08 | 67 | 1013.5 |
| 20260507212345 | 62 | 249 | 0.9 | 1.7 | 0.00 | 0.08 | 0.08 | 63 | 1013.8 |
| 20260507211842 | 61 | 115 | 0.9 | 0.9 | 0.00 | 0.08 | 0.08 | 67 | 1013.9 |
| 20260507211339 | 60 | 127 | 1.7 | 2.6 | 0.00 | 0.08 | 0.08 | 67 | 1014.1 |
| 20260507210835 | 60 | 146 | 3.5 | 3.5 | 0.00 | 0.08 | 0.08 | 68 | 1013.9 |
| 20260507210332 | 58 | 169 | 1.7 | 2.6 | 0.00 | 0.08 | 0.08 | 72 | 1014.0 |
| 20260507205828 | 56 | 314 | 0.9 | 0.9 | 0.17 | 0.08 | 0.08 | 75 | 1014.1 |
| 20260507205326 | 57 | 54 | 5.2 | 6.1 | 0.17 | 0.08 | 0.08 | 74 | 1014.1 |
| 20260507204821 | 60 | 312 | 5.2 | 6.1 | 0.00 | 0.06 | 0.06 | 69 | 1014.5 |
| 20260507204319 | 62 | 347 | 9.6 | 12.2 | 0.00 | 0.06 | 0.06 | 58 | 1013.9 |
| 20260507203817 | 63 | 61 | 2.6 | 2.6 | 0.00 | 0.06 | 0.06 | 58 | 1013.5 |
| 20260507203315 | 63 | 21 | 2.6 | 2.6 | 0.00 | 0.06 | 0.06 | 58 | 1013.8 |
| 20260507202811 | 63 | 75 | 4.3 | 7.0 | 0.00 | 0.06 | 0.06 | 58 | 1013.5 |
| 20260507202307 | 63 | 75 | 7.0 | 8.7 | 0.00 | 0.06 | 0.06 | 57 | 1013.4 |
| 20260507201802 | 64 | 23 | 1.7 | 3.5 | 0.00 | 0.06 | 0.06 | 58 | 1013.4 |
| 20260507201258 | 64 | 43 | 5.2 | 6.1 | 0.00 | 0.06 | 0.06 | 58 | 1013.5 |
| 20260507200755 | 65 | 106 | 4.3 | 6.1 | 0.00 | 0.06 | 0.06 | 56 | 1013.4 |
| 20260507200251 | 66 | 54 | 1.7 | 3.5 | 0.00 | 0.06 | 0.06 | 57 | 1013.4 |
| 20260507195747 | 66 | 30 | 4.3 | 6.1 | 0.00 | 0.06 | 0.06 | 56 | 1013.6 |
| 20260507195245 | 66 | 89 | 3.5 | 6.1 | 0.00 | 0.06 | 0.06 | 56 | 1013.5 |
| 20260507194742 | 66 | 64 | 5.2 | 7.0 | 0.00 | 0.06 | 0.06 | 56 | 1013.6 |
| 20260507194238 | 66 | 11 | 5.2 | 7.8 | 0.00 | 0.06 | 0.06 | 56 | 1013.4 |
| 20260507193734 | 66 | 28 | 5.2 | 7.8 | 0.00 | 0.06 | 0.06 | 59 | 1013.3 |
| 20260507193231 | 65 | 4 | 2.6 | 3.5 | 0.00 | 0.06 | 0.06 | 62 | 1013.5 |
| 20260507192727 | 65 | 91 | 4.3 | 6.1 | 0.00 | 0.06 | 0.06 | 62 | 1013.5 |
| 20260507192224 | 65 | 93 | 4.3 | 6.1 | 0.00 | 0.06 | 0.06 | 60 | 1013.6 |
| 20260507191720 | 64 | 64 | 2.6 | 5.2 | 0.00 | 0.06 | 0.06 | 63 | 1013.6 |
| 20260507191218 | 64 | 89 | 1.7 | 1.7 | 0.00 | 0.06 | 0.06 | 62 | 1013.7 |
| 20260507190714 | 65 | 88 | 3.5 | 3.5 | 0.00 | 0.06 | 0.06 | 61 | 1013.7 |
| 20260507190213 | 64 | 61 | 2.6 | 2.6 | 0.00 | 0.06 | 0.06 | 63 | 1013.7 |
| 20260507185711 | 64 | 29 | 0.9 | 0.9 | 0.00 | 0.06 | 0.06 | 61 | 1013.7 |
| 20260507185207 | 64 | 37 | 1.7 | 2.6 | 0.00 | 0.06 | 0.06 | 63 | 1013.7 |
| 20260507184705 | 63 | 58 | 1.7 | 1.7 | 0.00 | 0.06 | 0.06 | 64 | 1013.8 |
| 20260507184203 | 65 | 51 | 3.5 | 3.5 | 0.00 | 0.06 | 0.06 | 61 | 1013.7 |
| 20260507183659 | 65 | 61 | 2.6 | 3.5 | 0.00 | 0.06 | 0.06 | 60 | 1013.8 |
| 20260507183156 | 64 | 48 | 2.6 | 3.5 | 0.00 | 0.06 | 0.06 | 65 | 1013.9 |
| 20260507182654 | 64 | 23 | 1.7 | 2.6 | 0.00 | 0.06 | 0.06 | 63 | 1014.0 |
| 20260507182143 | 64 | 3 | 1.7 | 3.5 | 0.00 | 0.06 | 0.06 | 63 | 1013.9 |
| 20260507181640 | 63 | 66 | 3.5 | 5.2 | 0.00 | 0.06 | 0.06 | 64 | 1014.0 |
| 20260507181136 | 63 | 105 | 4.3 | 5.2 | 0.00 | 0.06 | 0.06 | 64 | 1014.0 |
| 20260507180633 | 62 | 131 | 0.0 | 0.9 | 0.00 | 0.06 | 0.06 | 67 | 1014.0 |
| 20260507180131 | 61 | 73 | 3.5 | 5.2 | 0.00 | 0.06 | 0.06 | 68 | 1014.0 |
| 20260507175626 | 61 | 96 | 2.6 | 3.5 | 0.00 | 0.06 | 0.06 | 70 | 1013.9 |
| 20260507175123 | 61 | 78 | 1.7 | 1.7 | 0.00 | 0.06 | 0.06 | 69 | 1014.2 |
| 20260507174620 | 60 | 34 | 1.7 | 2.6 | 0.00 | 0.06 | 0.06 | 71 | 1013.8 |
| 20260507174119 | 60 | 90 | 1.7 | 2.6 | 0.00 | 0.06 | 0.06 | 67 | 1014.0 |
| 20260507173615 | 61 | 54 | 4.3 | 7.0 | 0.00 | 0.06 | 0.06 | 67 | 1014.0 |
| 20260507173112 | 61 | 60 | 0.9 | 1.7 | 0.00 | 0.06 | 0.06 | 69 | 1013.9 |
| 20260507172608 | 61 | 101 | 1.7 | 1.7 | 0.00 | 0.06 | 0.06 | 67 | 1013.9 |
| 20260507172106 | 61 | 126 | 0.0 | 0.9 | 0.00 | 0.06 | 0.06 | 66 | 1013.9 |
| 20260507171600 | 61 | 50 | 3.5 | 5.2 | 0.00 | 0.06 | 0.06 | 64 | 1014.1 |
| 20260507171058 | 61 | 117 | 2.6 | 3.5 | 0.00 | 0.06 | 0.06 | 65 | 1014.1 |
| 20260507170555 | 60 | 40 | 0.9 | 0.9 | 0.00 | 0.06 | 0.06 | 65 | 1014.2 |
| 20260507170052 | 59 | 54 | 0.9 | 1.7 | 0.00 | 0.06 | 0.06 | 72 | 1014.2 |
| 20260507165547 | 59 | 24 | 2.6 | 2.6 | 0.00 | 0.06 | 0.06 | 71 | 1014.2 |
| 20260507165044 | 58 | 98 | 3.5 | 3.5 | 0.00 | 0.06 | 0.06 | 72 | 1014.4 |
| 20260507164540 | 59 | 68 | 2.6 | 3.5 | 0.00 | 0.06 | 0.06 | 71 | 1014.4 |
| 20260507164037 | 59 | 66 | 0.0 | 0.0 | 0.00 | 0.06 | 0.06 | 69 | 1014.5 |
| 20260507163534 | 59 | 88 | 1.7 | 2.6 | 0.00 | 0.06 | 0.06 | 72 | 1014.5 |
| 20260507163032 | 57 | 94 | 1.7 | 1.7 | 0.00 | 0.06 | 0.06 | 73 | 1014.6 |
| 20260507162526 | 57 | 102 | 1.7 | 2.6 | 0.00 | 0.06 | 0.06 | 75 | 1014.7 |
| 20260507162023 | 56 | 75 | 1.7 | 1.7 | 0.00 | 0.06 | 0.06 | 77 | 1014.7 |
| 20260507161520 | 56 | 116 | 0.9 | 1.7 | 0.00 | 0.06 | 0.06 | 77 | 1015.0 |
| 20260507161017 | 57 | 138 | 1.7 | 2.6 | 0.00 | 0.06 | 0.06 | 74 | 1014.9 |
| 20260507160512 | 58 | 40 | 0.9 | 0.9 | 0.00 | 0.06 | 0.06 | 75 | 1014.9 |
| 20260507160009 | 58 | 58 | 0.0 | 0.9 | 0.00 | 0.06 | 0.06 | 74 | 1014.8 |
| 20260507155504 | 57 | 58 | 0.0 | 0.9 | 0.00 | 0.06 | 0.06 | 76 | 1014.9 |
| 20260507155002 | 56 | 97 | 0.9 | 0.9 | 0.00 | 0.06 | 0.06 | 77 | 1014.8 |
| 20260507154458 | 56 | 112 | 3.5 | 3.5 | 0.00 | 0.06 | 0.06 | 76 | 1014.7 |
| 20260507153955 | 56 | 86 | 0.9 | 0.9 | 0.00 | 0.06 | 0.06 | 79 | 1014.9 |
| 20260507153452 | 55 | 76 | 0.0 | 0.9 | 0.00 | 0.06 | 0.06 | 80 | 1014.9 |
| 20260507152949 | 53 | 75 | 0.0 | 0.0 | 0.00 | 0.06 | 0.06 | 87 | 1014.8 |
| 20260507152444 | 51 | 75 | 0.0 | 0.0 | 0.00 | 0.06 | 0.06 | 88 | 1014.7 |
| 20260507151941 | 51 | 75 | 0.0 | 0.9 | 0.00 | 0.06 | 0.06 | 88 | 1014.7 |
| 20260507151437 | 51 | 76 | 0.9 | 0.9 | 0.00 | 0.06 | 0.06 | 88 | 1014.6 |
| 20260507150934 | 51 | 77 | 0.0 | 0.0 | 0.00 | 0.06 | 0.06 | 89 | 1014.4 |
| 20260507150431 | 50 | 83 | 0.0 | 0.0 | 0.00 | 0.06 | 0.06 | 89 | 1014.4 |
| 20260507145927 | 50 | 83 | 0.0 | 0.0 | 0.00 | 0.06 | 0.06 | 90 | 1014.4 |
| 20260507145423 | 50 | 84 | 0.0 | 0.9 | 0.00 | 0.06 | 0.06 | 89 | 1014.5 |
| 20260507144920 | 50 | 98 | 0.0 | 0.0 | 0.00 | 0.06 | 0.06 | 88 | 1014.4 |
| 20260507144417 | 50 | 76 | 0.0 | 0.9 | 0.00 | 0.06 | 0.06 | 89 | 1014.4 |
| 20260507143914 | 49 | 73 | 0.0 | 0.9 | 0.00 | 0.06 | 0.06 | 91 | 1014.2 |
| 20260507143412 | 49 | 77 | 0.0 | 0.0 | 0.00 | 0.06 | 0.06 | 91 | 1014.0 |
| 20260507142908 | 49 | 93 | 0.0 | 0.0 | 0.00 | 0.06 | 0.06 | 91 | 1013.9 |
| 20260507142404 | 49 | 95 | 0.0 | 0.0 | 0.00 | 0.06 | 0.06 | 91 | 1013.9 |
| 20260507141901 | 49 | 64 | 0.9 | 0.9 | 0.00 | 0.06 | 0.06 | 92 | 1013.8 |
| 20260507141357 | 48 | 42 | 0.0 | 0.0 | 0.00 | 0.06 | 0.06 | 93 | 1013.8 |
| 20260507140854 | 48 | 288 | 0.0 | 0.9 | 0.00 | 0.06 | 0.06 | 94 | 1014.0 |
| 20260507140351 | 48 | 289 | 0.0 | 0.0 | 0.00 | 0.06 | 0.06 | 94 | 1013.9 |
| 20260507135849 | 47 | 288 | 0.9 | 0.9 | 0.00 | 0.06 | 0.06 | 94 | 1013.9 |
| 20260507135345 | 47 | 288 | 0.0 | 0.0 | 0.00 | 0.06 | 0.06 | 94 | 1013.8 |
| 20260507134843 | 46 | 284 | 0.9 | 0.9 | 0.00 | 0.06 | 0.06 | 94 | 1013.7 |
| 20260507134339 | 46 | 316 | 0.9 | 0.9 | 0.00 | 0.06 | 0.06 | 95 | 1013.7 |
| 20260507133835 | 46 | 256 | 0.9 | 0.9 | 0.00 | 0.06 | 0.06 | 95 | 1013.6 |
| 20260507133330 | 45 | 294 | 0.0 | 0.9 | 0.00 | 0.06 | 0.06 | 95 | 1013.6 |
| 20260507132829 | 45 | 281 | 0.9 | 0.9 | 0.00 | 0.06 | 0.06 | 95 | 1013.5 |
| 20260507132325 | 45 | 275 | 1.7 | 1.7 | 0.00 | 0.06 | 0.06 | 95 | 1013.3 |
| 20260507131823 | 45 | 278 | 0.9 | 1.7 | 0.00 | 0.06 | 0.06 | 95 | 1013.5 |
| 20260507131319 | 45 | 296 | 0.9 | 1.7 | 0.00 | 0.06 | 0.06 | 95 | 1013.3 |
| 20260507130816 | 45 | 298 | 0.9 | 1.7 | 0.00 | 0.06 | 0.06 | 95 | 1013.3 |
| 20260507130313 | 44 | 284 | 1.7 | 1.7 | 0.00 | 0.06 | 0.06 | 95 | 1013.3 |
| 20260507125812 | 44 | 279 | 2.6 | 2.6 | 0.00 | 0.06 | 0.06 | 95 | 1013.1 |
| 20260507125309 | 44 | 271 | 1.7 | 1.7 | 0.00 | 0.06 | 0.06 | 95 | 1013.1 |
| 20260507124806 | 44 | 288 | 1.7 | 1.7 | 0.00 | 0.06 | 0.06 | 95 | 1013.1 |
| 20260507124302 | 44 | 277 | 1.7 | 1.7 | 0.00 | 0.06 | 0.06 | 95 | 1013.1 |
| 20260507123801 | 44 | 278 | 1.7 | 1.7 | 0.00 | 0.06 | 0.06 | 95 | 1013.0 |
| 20260507123258 | 44 | 274 | 1.7 | 1.7 | 0.00 | 0.06 | 0.06 | 95 | 1013.0 |
| 20260507122754 | 44 | 282 | 1.7 | 1.7 | 0.00 | 0.06 | 0.06 | 95 | 1013.1 |
| 20260507122249 | 44 | 264 | 1.7 | 1.7 | 0.00 | 0.06 | 0.06 | 95 | 1012.8 |
| 20260507121746 | 44 | 322 | 1.7 | 1.7 | 0.00 | 0.06 | 0.06 | 95 | 1012.9 |
| 20260507121241 | 44 | 277 | 0.9 | 0.9 | 0.00 | 0.06 | 0.06 | 95 | 1012.8 |
| 20260507120738 | 44 | 298 | 1.7 | 1.7 | 0.00 | 0.06 | 0.06 | 95 | 1012.9 |
| 20260507120235 | 44 | 262 | 0.0 | 0.9 | 0.00 | 0.06 | 0.06 | 94 | 1012.8 |
| 20260507115731 | 44 | 262 | 0.9 | 0.9 | 0.00 | 0.06 | 0.06 | 94 | 1012.8 |
| 20260507115227 | 45 | 261 | 1.7 | 1.7 | 0.00 | 0.06 | 0.06 | 93 | 1012.4 |
| 20260507114722 | 46 | 274 | 1.7 | 1.7 | 0.00 | 0.06 | 0.06 | 93 | 1012.8 |
| 20260507114220 | 46 | 277 | 2.6 | 2.6 | 0.00 | 0.06 | 0.06 | 94 | 1012.7 |
| 20260507113718 | 46 | 300 | 0.9 | 1.7 | 0.00 | 0.06 | 0.06 | 94 | 1012.7 |
| 20260507113214 | 46 | 307 | 1.7 | 1.7 | 0.00 | 0.06 | 0.06 | 94 | 1012.6 |
| 20260507112712 | 46 | 291 | 1.7 | 2.6 | 0.00 | 0.06 | 0.06 | 94 | 1012.5 |
| 20260507112209 | 46 | 271 | 2.6 | 2.6 | 0.00 | 0.06 | 0.06 | 94 | 1012.7 |
| 20260507111706 | 46 | 279 | 2.6 | 2.6 | 0.00 | 0.06 | 0.06 | 94 | 1012.7 |
| 20260507111203 | 46 | 271 | 2.6 | 2.6 | 0.00 | 0.06 | 0.06 | 95 | 1012.7 |
| 20260507110658 | 46 | 277 | 2.6 | 2.6 | 0.00 | 0.06 | 0.06 | 95 | 1012.6 |
| 20260507110156 | 46 | 278 | 2.6 | 2.6 | 0.00 | 0.06 | 0.06 | 95 | 1012.6 |
| 20260507105652 | 46 | 283 | 2.6 | 2.6 | 0.00 | 0.06 | 0.06 | 95 | 1012.6 |
| 20260507105148 | 46 | 283 | 1.7 | 1.7 | 0.00 | 0.06 | 0.06 | 95 | 1012.6 |
| 20260507104646 | 47 | 279 | 2.6 | 2.6 | 0.00 | 0.06 | 0.06 | 95 | 1012.6 |
| 20260507104142 | 47 | 282 | 2.6 | 2.6 | 0.00 | 0.06 | 0.06 | 94 | 1012.5 |
| 20260507103638 | 47 | 262 | 1.7 | 1.7 | 0.00 | 0.06 | 0.06 | 94 | 1012.6 |
| 20260507103135 | 48 | 290 | 1.7 | 1.7 | 0.00 | 0.06 | 0.06 | 94 | 1012.6 |
| 20260507102632 | 48 | 278 | 0.9 | 1.7 | 0.00 | 0.06 | 0.06 | 94 | 1012.4 |
| 20260507102128 | 48 | 269 | 1.7 | 1.7 | 0.00 | 0.06 | 0.06 | 94 | 1012.3 |
| 20260507101624 | 49 | 284 | 1.7 | 1.7 | 0.00 | 0.06 | 0.06 | 94 | 1012.5 |
| 20260507101120 | 49 | 276 | 1.7 | 1.7 | 0.00 | 0.06 | 0.06 | 94 | 1012.5 |
| 20260507100617 | 49 | 273 | 1.7 | 1.7 | 0.00 | 0.06 | 0.06 | 94 | 1012.5 |
| 20260507100115 | 49 | 296 | 0.9 | 0.9 | 0.00 | 0.06 | 0.06 | 94 | 1012.6 |
| 20260507095613 | 49 | 255 | 0.9 | 0.9 | 0.00 | 0.06 | 0.06 | 94 | 1012.5 |
| 20260507095109 | 49 | 250 | 0.9 | 0.9 | 0.00 | 0.06 | 0.06 | 94 | 1012.6 |
| 20260507094605 | 49 | 272 | 0.9 | 0.9 | 0.00 | 0.06 | 0.06 | 93 | 1012.5 |
| 20260507094103 | 50 | 286 | 1.7 | 1.7 | 0.00 | 0.06 | 0.06 | 93 | 1012.4 |
| 20260507093600 | 50 | 273 | 1.7 | 1.7 | 0.00 | 0.06 | 0.06 | 93 | 1012.4 |
| 20260507093059 | 50 | 262 | 1.7 | 2.6 | 0.00 | 0.06 | 0.06 | 93 | 1012.6 |
| 20260507092555 | 50 | 29 | 0.0 | 0.9 | 0.00 | 0.06 | 0.06 | 94 | 1012.4 |
| 20260507092051 | 50 | 29 | 0.0 | 0.0 | 0.00 | 0.06 | 0.06 | 93 | 1012.3 |
| 20260507091548 | 50 | 274 | 1.7 | 1.7 | 0.00 | 0.06 | 0.06 | 93 | 1012.7 |
| 20260507091044 | 50 | 264 | 2.6 | 2.6 | 0.00 | 0.06 | 0.06 | 93 | 1012.8 |
| 20260507090540 | 50 | 251 | 1.7 | 1.7 | 0.05 | 0.06 | 0.06 | 92 | 1012.8 |
| 20260507090037 | 50 | 18 | 0.0 | 0.9 | 0.05 | 0.06 | 0.06 | 92 | 1012.8 |
| 20260507085534 | 50 | 348 | 0.9 | 0.9 | 0.00 | 0.05 | 0.05 | 91 | 1012.7 |
| 20260507085031 | 50 | 278 | 1.7 | 2.6 | 0.00 | 0.05 | 0.05 | 91 | 1012.9 |
| 20260507084528 | 50 | 271 | 1.7 | 1.7 | 0.00 | 0.05 | 0.05 | 91 | 1012.8 |
| 20260507084025 | 50 | 289 | 1.7 | 1.7 | 0.00 | 0.05 | 0.05 | 91 | 1012.9 |
| 20260507083521 | 50 | 296 | 1.7 | 1.7 | 0.00 | 0.05 | 0.05 | 92 | 1012.9 |
| 20260507083018 | 50 | 240 | 0.0 | 0.9 | 0.00 | 0.05 | 0.05 | 91 | 1012.8 |
| 20260507082514 | 51 | 243 | 0.9 | 0.9 | 0.00 | 0.05 | 0.05 | 89 | 1012.8 |
| 20260507082010 | 51 | 293 | 0.9 | 0.9 | 0.00 | 0.05 | 0.05 | 89 | 1012.6 |
| 20260507081507 | 51 | 342 | 0.9 | 0.9 | 0.00 | 0.05 | 0.05 | 89 | 1012.8 |
| 20260507081004 | 51 | 297 | 1.7 | 2.6 | 0.00 | 0.05 | 0.05 | 87 | 1012.8 |
| 20260507080459 | 51 | 160 | 2.6 | 2.6 | 0.00 | 0.05 | 0.05 | 89 | 1012.5 |
| 20260507075955 | 50 | 355 | 0.9 | 0.9 | 0.00 | 0.05 | 0.05 | 90 | 1012.3 |
| 20260507075452 | 51 | 154 | 2.6 | 2.6 | 0.00 | 0.05 | 0.05 | 90 | 1012.3 |
| 20260507074948 | 51 | 16 | 0.0 | 0.9 | 0.00 | 0.05 | 0.05 | 88 | 1012.0 |
| 20260507074445 | 51 | 11 | 0.0 | 0.0 | 0.00 | 0.05 | 0.05 | 90 | 1011.5 |
| 20260507073943 | 51 | 70 | 0.0 | 0.0 | 0.00 | 0.05 | 0.05 | 90 | 1011.3 |
| 20260507073439 | 52 | 298 | 0.0 | 0.0 | 0.00 | 0.05 | 0.05 | 87 | 1011.3 |
| 20260507072936 | 51 | 348 | 1.7 | 1.7 | 0.05 | 0.05 | 0.05 | 87 | 1011.4 |
| 20260507072434 | 52 | 300 | 0.9 | 0.9 | 0.12 | 0.05 | 0.05 | 86 | 1011.5 |
| 20260507071931 | 53 | 101 | 1.7 | 1.7 | 0.12 | 0.04 | 0.04 | 84 | 1011.8 |
| 20260507071429 | 53 | 281 | 3.5 | 3.5 | 0.09 | 0.03 | 0.03 | 81 | 1012.2 |
| 20260507070925 | 54 | 288 | 2.6 | 2.6 | 0.12 | 0.02 | 0.02 | 80 | 1012.2 |
| 20260507070422 | 53 | 290 | 1.7 | 1.7 | 0.07 | 0.01 | 0.01 | 76 | 1011.8 |
| 20260507065918 | 51 | 32 | 0.0 | 0.9 | 0.00 | 0.00 | 0.00 | 85 | 1012.0 |
| 20260507065415 | 50 | 316 | 2.6 | 2.6 | 0.00 | 0.00 | 0.00 | 89 | 1011.9 |
| 20260507064912 | 50 | 337 | 1.7 | 2.6 | 0.00 | 0.00 | 0.00 | 90 | 1011.9 |
| 20260507064410 | 50 | 314 | 1.7 | 2.6 | 0.00 | 0.00 | 0.00 | 89 | 1011.9 |
| 20260507063908 | 50 | 329 | 0.9 | 1.7 | 0.00 | 0.00 | 0.00 | 88 | 1012.0 |
| 20260507063405 | 50 | 338 | 0.9 | 0.9 | 0.00 | 0.00 | 0.00 | 88 | 1012.0 |
| 20260507062902 | 50 | 243 | 2.6 | 3.5 | 0.00 | 0.00 | 0.00 | 88 | 1011.9 |
| 20260507062359 | 50 | 307 | 3.5 | 3.5 | 0.00 | 0.00 | 0.00 | 88 | 1011.9 |
| 20260507061856 | 50 | 260 | 1.7 | 2.6 | 0.00 | 0.00 | 0.00 | 88 | 1011.9 |
| 20260507061354 | 51 | 354 | 0.0 | 0.0 | 0.00 | 0.00 | 0.00 | 86 | 1011.9 |
| 20260507060853 | 51 | 295 | 0.9 | 0.9 | 0.00 | 0.00 | 0.00 | 85 | 1011.9 |
| 20260507060349 | 52 | 1 | 0.0 | 0.0 | 0.00 | 0.00 | 0.00 | 82 | 1011.6 |
| 20260507055846 | 52 | 1 | 0.9 | 0.9 | 0.00 | 0.02 | 0.02 | 82 | 1011.4 |
| 20260507055340 | 51 | 333 | 0.9 | 0.9 | 0.00 | 0.02 | 0.02 | 84 | 1011.4 |
| 20260507054838 | 51 | 228 | 1.7 | 1.7 | 0.00 | 0.02 | 0.02 | 88 | 1011.2 |
| 20260507054334 | 51 | 163 | 0.9 | 0.9 | 0.00 | 0.02 | 0.02 | 89 | 1011.2 |
| 20260507053831 | 51 | 254 | 1.7 | 1.7 | 0.00 | 0.02 | 0.02 | 89 | 1011.2 |
| 20260507053329 | 51 | 262 | 1.7 | 1.7 | 0.00 | 0.02 | 0.02 | 88 | 1011.3 |
| 20260507052828 | 52 | 295 | 1.7 | 2.6 | 0.00 | 0.02 | 0.02 | 87 | 1011.2 |
| 20260507052324 | 52 | 266 | 1.7 | 1.7 | 0.00 | 0.02 | 0.02 | 86 | 1010.9 |
| 20260507051822 | 51 | 281 | 1.7 | 2.6 | 0.00 | 0.02 | 0.02 | 86 | 1011.2 |
| 20260507051319 | 52 | 249 | 2.6 | 2.6 | 0.00 | 0.02 | 0.02 | 87 | 1011.4 |
| 20260507050816 | 53 | 306 | 1.7 | 1.7 | 0.00 | 0.02 | 0.02 | 83 | 1011.0 |
| 20260507050312 | 53 | 145 | 2.6 | 2.6 | 0.05 | 0.02 | 0.02 | 81 | 1011.3 |
| 20260507045809 | 54 | 319 | 3.5 | 5.2 | 0.09 | 0.02 | 0.02 | 78 | 1012.2 |
| 20260507045306 | 54 | 345 | 1.7 | 2.6 | 0.05 | 0.02 | 0.02 | 77 | 1012.3 |
| 20260507044803 | 55 | 330 | 9.6 | 12.2 | 0.09 | 0.02 | 0.02 | 72 | 1012.3 |
| 20260507044259 | 57 | 291 | 9.6 | 9.6 | 0.05 | 0.01 | 0.01 | 69 | 1012.2 |
| 20260507043755 | 61 | 300 | 5.2 | 7.8 | 0.00 | 0.00 | 0.00 | 60 | 1011.4 |
| 20260507043252 | 60 | 305 | 8.7 | 11.3 | 0.00 | 0.00 | 0.00 | 51 | 1011.6 |
| 20260507042748 | 53 | 273 | 6.1 | 7.8 | 0.00 | 0.00 | 0.00 | 72 | 1011.6 |
| 20260507042243 | 53 | 279 | 3.5 | 3.5 | 0.00 | 0.00 | 0.00 | 76 | 1011.3 |
| 20260507041741 | 53 | 284 | 2.6 | 2.6 | 0.00 | 0.00 | 0.00 | 76 | 1010.8 |
| 20260507041237 | 53 | 272 | 1.7 | 1.7 | 0.00 | 0.00 | 0.00 | 77 | 1010.6 |
| 20260507040735 | 53 | 270 | 2.6 | 2.6 | 0.00 | 0.00 | 0.00 | 75 | 1010.7 |
| 20260507040230 | 53 | 270 | 3.5 | 3.5 | 0.00 | 0.00 | 0.00 | 73 | 1010.8 |
| 20260507035727 | 53 | 280 | 3.5 | 3.5 | 0.00 | 0.00 | 0.00 | 74 | 1010.8 |
| 20260507035222 | 53 | 274 | 2.6 | 2.6 | 0.00 | 0.00 | 0.00 | 74 | 1010.9 |
| 20260507034720 | 54 | 273 | 2.6 | 2.6 | 0.00 | 0.00 | 0.00 | 73 | 1010.7 |
| 20260507034217 | 53 | 347 | 0.0 | 0.9 | 0.00 | 0.00 | 0.00 | 72 | 1010.8 |
| 20260507033715 | 53 | 285 | 0.9 | 0.9 | 0.00 | 0.00 | 0.00 | 74 | 1010.8 |
| 20260507033212 | 53 | 249 | 2.6 | 2.6 | 0.00 | 0.00 | 0.00 | 74 | 1010.7 |
| 20260507032710 | 53 | 302 | 0.9 | 0.9 | 0.00 | 0.00 | 0.00 | 72 | 1010.8 |
| 20260507032205 | 53 | 276 | 2.6 | 2.6 | 0.00 | 0.00 | 0.00 | 74 | 1010.8 |
| 20260507031702 | 53 | 276 | 3.5 | 3.5 | 0.00 | 0.00 | 0.00 | 74 | 1010.7 |
| 20260507031159 | 54 | 288 | 1.7 | 2.6 | 0.00 | 0.00 | 0.00 | 72 | 1010.7 |
| 20260507030656 | 54 | 272 | 3.5 | 3.5 | 0.00 | 0.00 | 0.00 | 72 | 1010.6 |
| 20260507030154 | 54 | 281 | 2.6 | 2.6 | 0.00 | 0.00 | 0.00 | 72 | 1010.5 |
| 20260507025651 | 55 | 282 | 2.6 | 2.6 | 0.00 | 0.00 | 0.00 | 72 | 1010.6 |
| 20260507025147 | 55 | 276 | 2.6 | 2.6 | 0.00 | 0.00 | 0.00 | 71 | 1010.6 |
| 20260507024646 | 56 | 278 | 1.7 | 1.7 | 0.00 | 0.00 | 0.00 | 70 | 1010.5 |
| 20260507024143 | 57 | 269 | 1.7 | 1.7 | 0.00 | 0.00 | 0.00 | 69 | 1010.4 |
| 20260507023638 | 57 | 326 | 0.9 | 0.9 | 0.00 | 0.00 | 0.00 | 67 | 1010.4 |
| 20260507023136 | 57 | 287 | 1.7 | 1.7 | 0.00 | 0.00 | 0.00 | 68 | 1010.5 |
| 20260507022632 | 57 | 272 | 1.7 | 1.7 | 0.00 | 0.00 | 0.00 | 68 | 1010.3 |
| 20260507022128 | 58 | 272 | 1.7 | 1.7 | 0.00 | 0.00 | 0.00 | 68 | 1010.3 |
| 20260507021624 | 58 | 275 | 1.7 | 1.7 | 0.00 | 0.00 | 0.00 | 67 | 1010.5 |
| 20260507021120 | 58 | 285 | 2.6 | 2.6 | 0.00 | 0.00 | 0.00 | 66 | 1010.4 |
| 20260507020619 | 59 | 264 | 2.6 | 2.6 | 0.00 | 0.00 | 0.00 | 68 | 1010.3 |
| 20260507020114 | 59 | 258 | 2.6 | 2.6 | 0.00 | 0.00 | 0.00 | 66 | 1010.4 |
| 20260507015613 | 59 | 287 | 1.7 | 1.7 | 0.00 | 0.00 | 0.00 | 67 | 1010.5 |
| 20260507015110 | 60 | 286 | 1.7 | 1.7 | 0.00 | 0.00 | 0.00 | 64 | 1010.4 |
| 20260507014607 | 60 | 296 | 0.9 | 0.9 | 0.00 | 0.00 | 0.00 | 65 | 1010.3 |
| 20260507014102 | 61 | 271 | 0.9 | 1.7 | 0.00 | 0.00 | 0.00 | 62 | 1010.5 |
| 20260507013559 | 61 | 347 | 0.0 | 0.9 | 0.00 | 0.00 | 0.00 | 63 | 1010.5 |
| 20260507013056 | 61 | 271 | 0.9 | 0.9 | 0.00 | 0.00 | 0.00 | 59 | 1010.6 |
| 20260507012554 | 62 | 3 | 0.0 | 0.0 | 0.00 | 0.00 | 0.00 | 60 | 1010.5 |
| 20260507012049 | 62 | 329 | 0.9 | 0.9 | 0.00 | 0.00 | 0.00 | 60 | 1010.3 |
| 20260507011547 | 62 | 226 | 0.0 | 0.9 | 0.00 | 0.00 | 0.00 | 57 | 1010.7 |
| 20260507011038 | 63 | 356 | 0.0 | 0.9 | 0.00 | 0.00 | 0.00 | 57 | 1010.6 |
| 20260507010532 | 63 | 355 | 0.0 | 0.9 | 0.00 | 0.00 | 0.00 | 51 | 1010.7 |
| 20260507010029 | 63 | 356 | 0.0 | 0.0 | 0.00 | 0.00 | 0.00 | 54 | 1010.6 |
| 20260507005527 | 63 | 356 | 0.0 | 0.0 | 0.00 | 0.00 | 0.00 | 46 | 1010.4 |
| 20260507005023 | 63 | 356 | 0.0 | 0.0 | 0.00 | 0.00 | 0.00 | 49 | 1010.4 |